Location: Kershaw
(34.5481°N, 80.5823°W)
Time: 16:56:42
(UTC+00:00)

Courier 1B Rocket - Pass Details

Date: 04 October 2022
Orbit: 920 x 1202 km, 28.2° (Epoch: 08 December)

Event Time Altitude Azimuth Distance (km) Brightness Sun altitude
Rises 04:24:56 0° 267° (W) 3,588 - -57.9°
Reaches altitude 10° 04:27:56 10° 256° (WSW) 2,621 - -58.2°
Maximum altitude 04:33:07 27° 200° (SSW) 1,665 - -58.5°
Drops below altitude 10° 04:38:17 10° 144° (SE) 2,608 - -58.8°
Sets 04:41:16 0° 132° (SE) 3,568 - -59.0°
